TimeCDT,TemperatureF,Dew PointF,Humidity,Sea Level PressureIn,VisibilityMPH,Wind Direction,Wind SpeedMPH,Gust SpeedMPH,PrecipitationIn,Events,Conditions,WindDirDegrees,DateUTC
12:53 AM,51.1,36.0,56,30.24,10.0,NE,3.5,-,N/A,,Clear,50,2014-03-14 05:53:00
1:53 AM,50.0,36.0,59,30.24,10.0,NE,3.5,-,N/A,,Clear,50,2014-03-14 06:53:00
2:53 AM,48.9,37.9,66,30.22,10.0,ENE,4.6,-,N/A,,Clear,60,2014-03-14 07:53:00
3:53 AM,46.9,37.9,71,30.22,10.0,NE,3.5,-,N/A,,Clear,40,2014-03-14 08:53:00
4:53 AM,43.0,36.0,76,30.23,10.0,Calm,Calm,-,N/A,,Clear,0,2014-03-14 09:53:00
5:53 AM,43.0,37.0,80,30.24,10.0,East,4.6,-,N/A,,Clear,80,2014-03-14 10:53:00
6:53 AM,46.9,36.0,66,30.24,10.0,East,5.8,-,N/A,,Clear,80,2014-03-14 11:53:00
7:53 AM,50.0,39.0,66,30.27,10.0,ENE,4.6,-,N/A,,Clear,70,2014-03-14 12:53:00
8:53 AM,55.0,39.0,55,30.30,10.0,East,6.9,-,N/A,,Clear,100,2014-03-14 13:53:00
9:53 AM,59.0,39.9,49,30.31,10.0,East,9.2,-,N/A,,Clear,90,2014-03-14 14:53:00
10:53 AM,63.0,41.0,45,30.31,10.0,ESE,11.5,-,N/A,,Clear,110,2014-03-14 15:53:00
11:53 AM,64.9,42.1,43,30.29,10.0,SE,11.5,-,N/A,,Clear,130,2014-03-14 16:53:00
12:53 PM,66.0,41.0,40,30.27,10.0,SE,13.8,-,N/A,,Clear,140,2014-03-14 17:53:00
1:53 PM,66.9,43.0,42,30.24,10.0,SE,13.8,-,N/A,,Clear,130,2014-03-14 18:53:00
2:53 PM,66.0,45.0,47,30.22,10.0,SE,11.5,-,N/A,,Clear,140,2014-03-14 19:53:00
3:53 PM,66.0,46.0,48,30.21,10.0,SE,10.4,-,N/A,,Clear,140,2014-03-14 20:53:00
4:53 PM,64.9,46.0,50,30.19,10.0,SSE,12.7,-,N/A,,Partly Cloudy,150,2014-03-14 21:53:00
5:53 PM,63.0,48.0,58,30.19,10.0,SSE,10.4,-,N/A,,Clear,150,2014-03-14 22:53:00
6:53 PM,60.1,48.9,67,30.19,10.0,SSE,4.6,-,N/A,,Clear,150,2014-03-14 23:53:00
7:53 PM,57.9,50.0,75,30.19,10.0,SE,4.6,-,N/A,,Clear,130,2014-03-15 00:53:00
8:53 PM,57.0,51.1,81,30.18,10.0,Calm,Calm,-,N/A,,Clear,0,2014-03-15 01:53:00
9:53 PM,57.0,52.0,83,30.17,10.0,ESE,4.6,-,N/A,,Clear,110,2014-03-15 02:53:00
10:53 PM,57.0,53.1,87,30.17,10.0,ESE,4.6,-,N/A,,Clear,110,2014-03-15 03:53:00
11:53 PM,55.9,53.1,90,30.15,10.0,Calm,Calm,-,N/A,,Mostly Cloudy,0,2014-03-15 04:53:00